Time,TemperatureF,DewpointF,PressureIn,WindDirection,WindDirectionDegrees,WindSpeedMPH,WindSpeedGustMPH,Humidity,HourlyPrecipIn,Conditions,Clouds,dailyrainin,SoftwareType,DateUTC
2013-07-20 00:05:00,76.1,67.0,29.66,WSW,245,1.0,2.0,74,0.00,,,0.00,weatherlink.com 1.10,2013-07-20 04:05:00,
2013-07-20 00:20:00,75.9,69.0,29.66,NE,39,3.0,4.0,78,0.00,,,0.00,weatherlink.com 1.10,2013-07-20 04:20:00,
2013-07-20 00:35:00,74.8,68.0,29.67,East,99,1.0,4.0,80,0.00,,,0.00,weatherlink.com 1.10,2013-07-20 04:35:00,
2013-07-20 00:50:00,76.4,68.0,29.66,SW,227,2.0,3.0,76,0.00,,,0.00,weatherlink.com 1.10,2013-07-20 04:50:00,
2013-07-20 01:05:00,77.8,68.0,29.67,WSW,238,0.0,4.0,72,0.00,,,0.00,weatherlink.com 1.10,2013-07-20 05:05:00,
2013-07-20 01:20:00,77.8,69.0,29.68,SSW,204,5.0,6.0,74,0.00,,,0.00,weatherlink.com 1.10,2013-07-20 05:20:00,
2013-07-20 01:35:00,77.4,69.0,29.67,SSE,156,2.0,5.0,74,0.00,,,0.00,weatherlink.com 1.10,2013-07-20 05:35:00,
2013-07-20 01:50:00,76.2,69.0,29.67,NNE,33,2.0,3.0,78,0.00,,,0.00,weatherlink.com 1.10,2013-07-20 05:50:00,
2013-07-20 02:05:00,74.8,70.0,29.67,SE,132,4.0,7.0,84,0.00,,,0.00,weatherlink.com 1.10,2013-07-20 06:05:00,
2013-07-20 02:20:00,74.0,69.0,29.66,WSW,242,7.0,8.0,85,0.00,,,0.00,weatherlink.com 1.10,2013-07-20 06:20:00,
2013-07-20 02:35:00,73.2,69.0,29.67,SSE,153,2.0,7.0,86,0.00,,,0.00,weatherlink.com 1.10,2013-07-20 06:35:00,
2013-07-20 02:50:00,72.8,69.0,29.67,SSE,157,1.0,4.0,87,0.00,,,0.00,weatherlink.com 1.10,2013-07-20 06:50:00,
2013-07-20 03:05:00,72.6,69.0,29.68,ESE,120,2.0,4.0,87,0.00,,,0.00,weatherlink.com 1.10,2013-07-20 07:05:00,
2013-07-20 03:20:00,72.2,69.0,29.68,SW,234,0.0,4.0,88,0.00,,,0.00,weatherlink.com 1.10,2013-07-20 07:20:00,
2013-07-20 03:35:00,71.7,68.0,29.68,SSE,153,0.0,6.0,89,0.00,,,0.00,weatherlink.com 1.10,2013-07-20 07:35:00,
2013-07-20 03:51:00,71.6,69.0,29.67,NE,46,1.0,2.0,90,0.00,,,0.00,weatherlink.com 1.10,2013-07-20 07:51:00,
2013-07-20 04:06:00,71.2,68.0,29.66,ESE,120,5.0,6.0,90,0.00,,,0.00,weatherlink.com 1.10,2013-07-20 08:06:00,
2013-07-20 04:21:00,71.1,68.0,29.65,SE,138,3.0,5.0,90,0.00,,,0.00,weatherlink.com 1.10,2013-07-20 08:21:00,
2013-07-20 04:36:00,71.2,68.0,29.66,NE,43,2.0,4.0,90,0.00,,,0.00,weatherlink.com 1.10,2013-07-20 08:36:00,
2013-07-20 04:51:00,70.6,68.0,29.66,ENE,59,0.0,3.0,92,0.00,,,0.00,weatherlink.com 1.10,2013-07-20 08:51:00,
2013-07-20 05:06:00,70.9,68.0,29.67,WNW,283,0.0,2.0,91,0.00,,,0.00,weatherlink.com 1.10,2013-07-20 09:06:00,
2013-07-20 05:21:00,70.5,68.0,29.68,NE,53,0.0,1.0,92,0.00,,,0.00,weatherlink.com 1.10,2013-07-20 09:21:00,
2013-07-20 05:36:00,70.2,68.0,29.68,East,86,0.0,2.0,93,0.00,,,0.00,weatherlink.com 1.10,2013-07-20 09:36:00,
2013-07-20 05:51:00,70.5,68.0,29.68,SE,141,2.0,4.0,92,0.00,,,0.00,weatherlink.com 1.10,2013-07-20 09:51:00,
2013-07-20 06:06:00,70.9,68.0,29.69,SSE,150,3.0,7.0,91,0.00,,,0.00,weatherlink.com 1.10,2013-07-20 10:06:00,
2013-07-20 06:21:00,71.6,69.0,29.68,NNE,12,0.0,1.0,90,0.00,,,0.00,weatherlink.com 1.10,2013-07-20 10:21:00,
2013-07-20 06:36:00,72.4,68.0,29.69,SSW,212,0.0,3.0,87,0.00,,,0.00,weatherlink.com 1.10,2013-07-20 10:36:00,
2013-07-20 06:51:00,72.2,69.0,29.69,NE,37,1.0,1.0,89,0.00,,,0.00,weatherlink.com 1.10,2013-07-20 10:51:00,
2013-07-20 07:06:00,71.8,69.0,29.70,SSE,151,1.0,3.0,89,0.00,,,0.00,weatherlink.com 1.10,2013-07-20 11:06:00,
2013-07-20 07:21:00,72.1,69.0,29.70,ESE,110,3.0,4.0,89,0.01,,,0.01,weatherlink.com 1.10,2013-07-20 11:21:00,
2013-07-20 07:36:00,71.9,70.0,29.70,NE,49,1.0,2.0,92,0.01,,,0.01,weatherlink.com 1.10,2013-07-20 11:36:00,
2013-07-20 07:51:00,71.8,69.0,29.70,SSE,150,3.0,3.0,91,0.01,,,0.01,weatherlink.com 1.10,2013-07-20 11:51:00,
2013-07-20 08:06:00,72.5,70.0,29.70,SE,125,2.0,3.0,90,0.01,,,0.01,weatherlink.com 1.10,2013-07-20 12:06:00,
2013-07-20 08:21:00,72.6,70.0,29.70,South,177,0.0,4.0,90,0.00,,,0.01,weatherlink.com 1.10,2013-07-20 12:21:00,
2013-07-20 08:36:00,72.6,70.0,29.69,ESE,107,3.0,6.0,90,0.00,,,0.01,weatherlink.com 1.10,2013-07-20 12:36:00,
2013-07-20 08:51:00,72.9,70.0,29.68,ESE,118,2.0,7.0,89,0.00,,,0.01,weatherlink.com 1.10,2013-07-20 12:51:00,
2013-07-20 09:06:00,74.1,70.0,29.68,SE,134,4.0,8.0,87,0.00,,,0.01,weatherlink.com 1.10,2013-07-20 13:06:00,
2013-07-20 09:21:00,77.4,71.0,29.67,West,259,3.0,5.0,81,0.00,,,0.01,weatherlink.com 1.10,2013-07-20 13:21:00,
2013-07-20 09:36:00,81.1,70.0,29.67,SSW,208,2.0,6.0,70,0.00,,,0.01,weatherlink.com 1.10,2013-07-20 13:36:00,
2013-07-20 09:51:00,80.0,71.0,29.66,SW,215,2.0,10.0,73,0.00,,,0.01,weatherlink.com 1.10,2013-07-20 13:51:00,
2013-07-20 10:06:00,80.8,71.0,29.67,SSW,203,3.0,12.0,71,0.00,,,0.01,weatherlink.com 1.10,2013-07-20 14:06:00,
2013-07-20 10:21:00,80.9,71.0,29.66,NW,326,1.0,10.0,71,0.00,,,0.01,weatherlink.com 1.10,2013-07-20 14:21:00,
2013-07-20 10:36:00,80.3,71.0,29.66,SSE,153,2.0,8.0,72,0.00,,,0.01,weatherlink.com 1.10,2013-07-20 14:36:00,
2013-07-20 10:51:00,80.2,71.0,29.66,SSW,210,4.0,9.0,73,0.00,,,0.01,weatherlink.com 1.10,2013-07-20 14:51:00,
2013-07-20 11:06:00,82.7,72.0,29.65,SW,225,1.0,9.0,71,0.00,,,0.01,weatherlink.com 1.10,2013-07-20 15:06:00,
2013-07-20 11:21:00,84.1,72.0,29.66,WSW,239,6.0,11.0,66,0.00,,,0.01,weatherlink.com 1.10,2013-07-20 15:21:00,
2013-07-20 11:36:00,84.1,71.0,29.66,WSW,253,7.0,11.0,64,0.00,,,0.01,weatherlink.com 1.10,2013-07-20 15:36:00,
2013-07-20 11:51:00,83.9,70.0,29.66,WNW,287,6.0,16.0,63,0.00,,,0.01,weatherlink.com 1.10,2013-07-20 15:51:00,
2013-07-20 12:06:00,83.7,70.0,29.65,WNW,299,2.0,15.0,63,0.00,,,0.01,weatherlink.com 1.10,2013-07-20 16:06:00,
2013-07-20 12:22:00,85.4,69.0,29.65,South,184,3.0,10.0,58,0.00,,,0.01,weatherlink.com 1.10,2013-07-20 16:22:00,
2013-07-20 12:37:00,85.0,69.0,29.64,WNW,284,9.0,11.0,59,0.00,,,0.01,weatherlink.com 1.10,2013-07-20 16:37:00,
2013-07-20 12:52:00,85.9,68.0,29.64,West,266,6.0,9.0,56,0.00,,,0.01,weatherlink.com 1.10,2013-07-20 16:52:00,
2013-07-20 13:07:00,85.9,67.0,29.63,WSW,256,6.0,14.0,54,0.00,,,0.01,weatherlink.com 1.10,2013-07-20 17:07:00,
2013-07-20 13:22:00,85.9,68.0,29.63,WSW,237,3.0,13.0,55,0.00,,,0.01,weatherlink.com 1.10,2013-07-20 17:22:00,
2013-07-20 13:37:00,86.6,70.0,29.63,WNW,296,7.0,10.0,58,0.00,,,0.01,weatherlink.com 1.10,2013-07-20 17:37:00,
2013-07-20 13:52:00,86.7,68.0,29.63,ESE,107,6.0,13.0,54,0.00,,,0.01,weatherlink.com 1.10,2013-07-20 17:52:00,
2013-07-20 14:07:00,84.8,68.0,29.64,North,349,6.0,12.0,57,0.00,,,0.01,weatherlink.com 1.10,2013-07-20 18:07:00,
2013-07-20 14:22:00,80.9,71.0,29.65,WNW,288,3.0,13.0,71,0.01,,,0.02,weatherlink.com 1.10,2013-07-20 18:22:00,
2013-07-20 14:52:00,80.1,70.0,29.65,West,274,3.0,7.0,72,0.01,,,0.02,weatherlink.com 1.10,2013-07-20 18:52:00,
2013-07-20 15:07:00,79.8,69.0,29.65,WSW,246,2.0,10.0,69,0.01,,,0.02,weatherlink.com 1.10,2013-07-20 19:07:00,
2013-07-20 15:22:00,80.0,69.0,29.65,NW,316,4.0,8.0,70,0.00,,,0.02,weatherlink.com 1.10,2013-07-20 19:22:00,
2013-07-20 15:37:00,82.5,69.0,29.65,West,278,4.0,10.0,64,0.00,,,0.02,weatherlink.com 1.10,2013-07-20 19:37:00,
2013-07-20 15:52:00,83.0,70.0,29.65,SW,231,3.0,8.0,64,0.00,,,0.02,weatherlink.com 1.10,2013-07-20 19:52:00,
2013-07-20 16:07:00,82.8,68.0,29.66,WSW,246,8.0,10.0,62,0.00,,,0.02,weatherlink.com 1.10,2013-07-20 20:07:00,
2013-07-20 16:22:00,83.3,69.0,29.66,WNW,291,2.0,11.0,62,0.00,,,0.02,weatherlink.com 1.10,2013-07-20 20:22:00,
2013-07-20 16:37:00,84.2,68.0,29.66,WSW,239,2.0,7.0,59,0.00,,,0.02,weatherlink.com 1.10,2013-07-20 20:37:00,
2013-07-20 16:52:00,84.6,70.0,29.66,SSW,210,6.0,8.0,61,0.00,,,0.02,weatherlink.com 1.10,2013-07-20 20:52:00,
2013-07-20 17:07:00,83.0,69.0,29.66,WSW,249,5.0,11.0,63,0.00,,,0.02,weatherlink.com 1.10,2013-07-20 21:07:00,
2013-07-20 17:37:00,83.1,60.0,29.67,NW,312,0.0,3.0,45,0.00,,,0.02,weatherlink.com 1.10,2013-07-20 21:37:00,
2013-07-20 17:52:00,82.0,61.0,29.67,NNW,339,2.0,4.0,49,0.00,,,0.02,weatherlink.com 1.10,2013-07-20 21:52:00,
2013-07-20 18:07:00,82.6,59.0,29.68,NW,319,4.0,6.0,45,0.00,,,0.02,weatherlink.com 1.10,2013-07-20 22:07:00,
2013-07-20 18:22:00,83.1,59.0,29.68,WNW,302,1.0,3.0,44,0.00,,,0.02,weatherlink.com 1.10,2013-07-20 22:22:00,
2013-07-20 18:37:00,83.3,63.0,29.68,WNW,286,1.0,2.0,50,0.00,,,0.02,weatherlink.com 1.10,2013-07-20 22:37:00,
2013-07-20 18:52:00,79.4,63.0,29.69,NE,34,1.0,3.0,57,0.00,,,0.02,weatherlink.com 1.10,2013-07-20 22:52:00,
2013-07-20 19:07:00,76.0,64.0,29.70,NNE,33,1.0,2.0,66,0.00,,,0.02,weatherlink.com 1.10,2013-07-20 23:07:00,
2013-07-20 19:22:00,74.5,65.0,29.71,NNE,32,0.0,1.0,73,0.00,,,0.02,weatherlink.com 1.10,2013-07-20 23:22:00,
2013-07-20 19:37:00,73.9,65.0,29.71,NNE,32,1.0,2.0,73,0.00,,,0.02,weatherlink.com 1.10,2013-07-20 23:37:00,
2013-07-20 19:52:00,73.5,65.0,29.71,NE,34,1.0,2.0,75,0.00,,,0.02,weatherlink.com 1.10,2013-07-20 23:52:00,
2013-07-20 20:22:00,72.7,63.0,29.72,NNE,13,1.0,1.0,72,0.00,,,0.02,weatherlink.com 1.10,2013-07-21 00:22:00,
2013-07-20 20:52:00,69.9,63.0,29.73,NE,34,0.0,1.0,78,0.00,,,0.02,weatherlink.com 1.10,2013-07-21 00:52:00,
2013-07-20 21:07:00,69.5,63.0,29.73,NNE,27,2.0,2.0,81,0.00,,,0.02,weatherlink.com 1.10,2013-07-21 01:07:00,
2013-07-20 21:37:00,68.0,63.0,29.75,ENE,59,0.0,1.0,85,0.00,,,0.02,weatherlink.com 1.10,2013-07-21 01:37:00,
2013-07-20 21:52:00,67.4,63.0,29.76,NNE,25,0.0,2.0,86,0.00,,,0.02,weatherlink.com 1.10,2013-07-21 01:52:00,
2013-07-20 22:07:00,66.8,63.0,29.76,NNE,23,1.0,1.0,87,0.00,,,0.02,weatherlink.com 1.10,2013-07-21 02:07:00,
2013-07-20 22:22:00,66.8,63.0,29.76,NNE,23,0.0,2.0,88,0.00,,,0.02,weatherlink.com 1.10,2013-07-21 02:22:00,
2013-07-20 22:37:00,66.1,63.0,29.77,NNE,23,0.0,1.0,88,0.00,,,0.02,weatherlink.com 1.10,2013-07-21 02:37:00,
2013-07-20 23:23:00,66.6,63.0,29.80,NE,51,2.0,4.0,87,0.00,,,0.02,weatherlink.com 1.10,2013-07-21 03:23:00,